"Pseudo-MPEC" for P1162Um

Created 2020 Sep 19 21:07:25 UT using Find_Orb

Click here for an explanation of pseudo-MPECs

 
 Astrometry: 
     P1162Um  C2020 09 141kRG:rmyUMB+AstrometryJat5'+[:)9Q[1xt_=@pbs=#Ed;?*]%F51
     P1162Um  C2020 09 14TxyiZ_$NB=%#(redacted;WQhNr86EVmDtJ_:Tw?bur,/1d]T\1dF51
     P1162Um  C2020 09 14M=,!5ElZU9XOc=Cq:4ji@clicky*7.@S@_[7k\Lj(`yB)_5LWPikF51
     P1162Um  C2020 09 14t2es2IdujoOy,t5X?rr:6GS%N0UqUO)@#oDgj4__=8k7N#0Fu):eF51
     P1162Um  C2020 09 14PmkXXO3*2.here-(,NL@427L#(T[9TVBnvLg+Ng4aKGIX)U-UOugF52
     P1162Um  C2020 09 14fGEoV.06*Y2VuSaIuPdFQhYZwf5M;WmbVr\J)L.b9e7l:gVXh-FGF52
     P1162Um  C2020 09 16AxgWK(hrDD5=Z9F,HbE3ylm9Y$KGeLH-J5O=,GbP6%dPKpx3pefXF51
     P1162Um  C2020 09 16Yu6*wVE/Z[M/R31:=G?'wDQuW!:w=MVmcaDeqCNRXUa1hrK_tEfqF51
     P1162Um  C2020 09 16irG!sax7hU^Rp(qgKFs*U5;xa@][e$SUvVI;T:*cx6Y-!,-t6cc+F51
     P1162Um ^C2020 09 16.57590601 57 54.031-08 35 12.18   ~9GLb 21.51GVNEOCP568
     P1162Um ^C2020 09 16.57685301 57 54.004-08 35 10.98   ~9GLb 21.45GVNEOCP568
     P1162Um ^C2020 09 16.57780701 57 53.975-08 35 09.74   ~9GLb 21.51GVNEOCP568
     P1162Um  C2020 09 18;KKx,7forV9FRmVV/0pmNo]-ODb[R7Ko00K6b2M?KMK?)'(mxOAGF51
     P1162Um  C2020 09 182)PVkfb(7W)A.8*@?#llN1uVmB.BdU.m+d8q'Ac8explanation$F51
     P1162Um  C2020 09 18eZ2#SBAEhI0=%W_gyIB-p(K/SR*pE.5%t8wM4rLA6?!mYhl\eSSGF51

Station data:
(568) Mauna Kea  (N19.826116 W155.472200)  US/Hawaii.
(F51) Pan-STARRS 1, Haleakala  (N20.707235 W156.255910)  US/Hawaii.
   Observers N. Primak, A. Schultz, S. Watters, J. Thiel, T. Goggia. Measurer
   PS1 Science Consortium. 1.8-m Ritchey-Chrétien + CCD.
(F52) Pan-STARRS 2, Haleakala  (N20.707384 W156.255910)  US/Hawaii. 1.8-m
   Ritchey-Chrétien + CCD.

Orbital elements:  P1162Um
   Perihelion 2020 Dec 9.244501 +/- 0.0679 TT =  5:52:04 (JD 2459192.744501)
Epoch 2020 Sep 18.0 TT = JDT 2459110.5   Earth MOID: 0.2617   Ma: 0.0453
M 341.36165143 +/- 0.35             (J2000 ecliptic)          AutoNEOCP
n   0.22662121 +/- 0.00419          Peri.   53.69294 +/- 0.12
a   2.66441790 +/- 0.0328           Node    19.60880 +/- 0.018
e   0.5763214 +/- 0.0053            Incl.   25.00117 +/- 0.12
P   4.35                   H 21.3   G  0.15   U  9.1  
q 1.12885672 +/- 0.00145    Q 4.19997909 +/- 0.0673
From 15 observations 2020 Sept. 14-18; mean residual 0".07
Residuals in arcseconds: 
200914 F51  .01+  .08-    200914 F52  .01+  .11-    200916 568  .01-  .03-    
200914 F51  .05+  .15-    200916 F51  .02+  .04+    200916 568  .02-  .02-    
200914 F51  .03+  .19+    200916 F51  .00   .02-    200918 F51  .01+  .02+    
200914 F51  .05-  .04-    200916 F51  .04+  .05+    200918 F51  .03-  .02-    
200914 F52  .03-  .18+    200916 568  .03-  .02-    200918 F51  .02+  .00     

Ephemerides (geocentric):
Date (UTC) HH   RA              Dec         delta   r     elong  mag " sig PA
---- -- -- --  -------------   -----------  ------ ------ -----  --- ---- ---
2020 09 19 21  01 56 14.690   -07 19 02.50  .52027 1.4709 147.8 21.8 .479  77
2020 09 19 22  01 56 13.144   -07 18 00.35  .51982 1.4706 147.8 21.7 .495  76
2020 09 19 23  01 56 11.590   -07 16 58.07  .51937 1.4703 147.9 21.7 .511  76
2020 09 20 00  01 56 10.029   -07 15 55.68  .51893 1.4700 147.9 21.7 .527  76
2020 09 20 01  01 56 08.461   -07 14 53.16  .51848 1.4697 148.0 21.7 .543  76
2020 09 20 02  01 56 06.885   -07 13 50.53  .51803 1.4695 148.0 21.7 .559  76
2020 09 20 03  01 56 05.302   -07 12 47.77  .51759 1.4692 148.0 21.7 .575  76
2020 09 20 04  01 56 03.712   -07 11 44.89  .51714 1.4689 148.1 21.7 .592  76
2020 09 20 05  01 56 02.114   -07 10 41.89  .51669 1.4686 148.1 21.7 .609  75
2020 09 20 06  01 56 00.508   -07 09 38.77  .51625 1.4683 148.2 21.7 .626  75
2020 09 20 07  01 55 58.895   -07 08 35.53  .51580 1.4680 148.2 21.7 .643  75
2020 09 20 08  01 55 57.275   -07 07 32.16  .51536 1.4677 148.2 21.7 .661  75
2020 09 20 09  01 55 55.647   -07 06 28.67  .51491 1.4674 148.3 21.7 .678  75
2020 09 20 10  01 55 54.011   -07 05 25.06  .51447 1.4672 148.3 21.7 .696  75
2020 09 20 11  01 55 52.368   -07 04 21.32  .51403 1.4669 148.4 21.7 .714  75
2020 09 20 12  01 55 50.718   -07 03 17.47  .51358 1.4666 148.4 21.7 .732  75
2020 09 20 13  01 55 49.060   -07 02 13.48  .51314 1.4663 148.5 21.7 .751  75
2020 09 20 14  01 55 47.394   -07 01 09.38  .51269 1.4660 148.5 21.7 .769  74
2020 09 20 15  01 55 45.721   -07 00 05.15  .51225 1.4657 148.5 21.7 .788  74
2020 09 20 16  01 55 44.040   -06 59 00.79  .51181 1.4654 148.6 21.7 .807  74
2020 09 20 17  01 55 42.352   -06 57 56.31  .51137 1.4651 148.6 21.7 .826  74
2020 09 20 18  01 55 40.656   -06 56 51.71  .51092 1.4649 148.7 21.7 .845  74
2020 09 20 19  01 55 38.953   -06 55 46.98  .51048 1.4646 148.7 21.7 .865  74
2020 09 20 20  01 55 37.242   -06 54 42.13  .51004 1.4643 148.8 21.7 .884  74
2020 09 20 21  01 55 35.523   -06 53 37.15  .50960 1.4640 148.8 21.7 .904  74
2020 09 20 22  01 55 33.797   -06 52 32.04  .50916 1.4637 148.9 21.7 .924  74
2020 09 20 23  01 55 32.063   -06 51 26.81  .50872 1.4634 148.9 21.7 .945  74
2020 09 21 00  01 55 30.322   -06 50 21.45  .50828 1.4631 148.9 21.7 .965  74
2020 09 21 01  01 55 28.573   -06 49 15.96  .50784 1.4628 149.0 21.7 .986  73
2020 09 21 02  01 55 26.816   -06 48 10.35  .50740 1.4626 149.0 21.7 1.01  73
2020 09 21 03  01 55 25.051   -06 47 04.61  .50696 1.4623 149.1 21.7 1.03  73
2020 09 21 04  01 55 23.279   -06 45 58.74  .50652 1.4620 149.1 21.7 1.05  73
2020 09 21 05  01 55 21.500   -06 44 52.74  .50608 1.4617 149.2 21.7 1.07  73
2020 09 21 06  01 55 19.712   -06 43 46.62  .50564 1.4614 149.2 21.7 1.09  73
2020 09 21 07  01 55 17.917   -06 42 40.37  .50520 1.4611 149.2 21.6 1.11  73
2020 09 21 08  01 55 16.114   -06 41 33.99  .50476 1.4608 149.3 21.6 1.14  73
2020 09 21 09  01 55 14.303   -06 40 27.47  .50432 1.4605 149.3 21.6 1.16  73
2020 09 21 10  01 55 12.485   -06 39 20.83  .50389 1.4603 149.4 21.6 1.18  73
2020 09 21 11  01 55 10.659   -06 38 14.07  .50345 1.4600 149.4 21.6 1.20  73
2020 09 21 12  01 55 08.825   -06 37 07.17  .50301 1.4597 149.5 21.6 1.22  73
2020 09 21 13  01 55 06.984   -06 36 00.14  .50257 1.4594 149.5 21.6 1.25  73
2020 09 21 14  01 55 05.134   -06 34 52.98  .50214 1.4591 149.6 21.6 1.27  72
2020 09 21 15  01 55 03.277   -06 33 45.69  .50170 1.4588 149.6 21.6 1.29  72
2020 09 21 16  01 55 01.412   -06 32 38.27  .50127 1.4585 149.6 21.6 1.32  72
2020 09 21 17  01 54 59.540   -06 31 30.71  .50083 1.4583 149.7 21.6 1.34  72
2020 09 21 18  01 54 57.659   -06 30 23.03  .50039 1.4580 149.7 21.6 1.37  72
2020 09 21 19  01 54 55.771   -06 29 15.21  .49996 1.4577 149.8 21.6 1.39  72
2020 09 21 20  01 54 53.875   -06 28 07.27  .49952 1.4574 149.8 21.6 1.41  72